TimeAKST,TemperatureF,Dew PointF,Humidity,Sea Level PressureIn,VisibilityMPH,Wind Direction,Wind SpeedMPH,Gust SpeedMPH,PrecipitationIn,Events,Conditions,WindDirDegrees,DateUTC
12:53 AM,41.0,35.1,79,28.66,10.0,SW,29.9,36.8,0.02,Rain,Light Rain,220,2012-12-09 09:53:00
1:53 AM,39.9,35.1,83,28.72,10.0,SW,27.6,35.7,0.01,Rain,Light Rain,220,2012-12-09 10:53:00
3:49 AM,39.2,35.6,87,28.87,10.0,WSW,13.8,-,0.01,Rain,Light Rain,250,2012-12-09 12:49:00
3:53 AM,39.0,35.1,86,28.88,10.0,WSW,17.3,-,0.01,Rain,Light Rain,250,2012-12-09 12:53:00
4:36 AM,39.2,35.6,87,28.92,10.0,SW,17.3,-,0.02,Rain,Light Rain,230,2012-12-09 13:36:00
4:53 AM,39.0,35.1,86,28.94,10.0,WSW,15.0,-,0.03,Rain,Light Rain,240,2012-12-09 13:53:00
5:19 AM,39.2,35.6,87,28.96,10.0,SW,21.9,-,0.01,Rain,Light Rain,230,2012-12-09 14:19:00
5:53 AM,37.0,34.0,89,29.01,6.0,WSW,23.0,32.2,0.05,Rain,Light Rain,240,2012-12-09 14:53:00
6:53 AM,36.0,32.0,86,29.06,10.0,WSW,23.0,29.9,0.04,Rain,Light Rain,240,2012-12-09 15:53:00
7:53 AM,35.1,32.0,89,29.10,7.0,SW,20.7,29.9,0.02,Snow,Light Snow,230,2012-12-09 16:53:00
8:49 AM,35.6,32.0,87,29.15,10.0,SW,17.3,25.3,0.01,Rain,Light Rain,220,2012-12-09 17:49:00
8:53 AM,35.1,32.0,89,29.16,10.0,SW,20.7,27.6,0.01,Rain,Light Rain,220,2012-12-09 17:53:00
9:17 AM,35.6,30.2,81,29.16,10.0,SW,23.0,-,0.00,Rain,Light Rain,230,2012-12-09 18:17:00
9:53 AM,34.0,30.9,89,29.20,4.0,SW,19.6,-,0.01,Rain,Light Rain,230,2012-12-09 18:53:00
10:47 AM,33.8,30.2,87,29.25,1.8,SW,19.6,27.6,0.01,Snow,Light Snow,220,2012-12-09 19:47:00
10:48 AM,34.0,30.9,89,29.26,1.8,SW,20.7,27.6,0.01,Snow,Light Snow,220,2012-12-09 19:48:00
11:01 AM,33.8,30.2,87,29.26,3.0,SW,19.6,-,0.00,Snow,Light Snow,220,2012-12-09 20:01:00
11:30 AM,35.6,30.2,81,29.29,9.0,SW,19.6,-,0.00,,Overcast,230,2012-12-09 20:30:00
11:53 AM,35.1,30.0,82,29.32,10.0,SW,18.4,27.6,0.00,,Overcast,220,2012-12-09 20:53:00
12:53 PM,35.1,30.0,82,29.35,10.0,SW,27.6,33.4,N/A,,Mostly Cloudy,230,2012-12-09 21:53:00
1:53 PM,36.0,28.9,76,29.39,10.0,WSW,16.1,19.6,N/A,,Overcast,240,2012-12-09 22:53:00
2:53 PM,36.0,28.9,76,29.42,10.0,WSW,12.7,-,0.00,Rain,Light Rain,250,2012-12-09 23:53:00
3:06 PM,33.8,28.4,81,29.42,6.0,WSW,5.8,-,0.01,Rain,Light Rain,250,2012-12-10 00:06:00
3:30 PM,35.6,30.2,81,29.42,8.0,SW,13.8,-,0.01,Snow,Light Snow,220,2012-12-10 00:30:00
3:53 PM,35.1,28.9,78,29.42,10.0,WSW,16.1,-,0.01,,Overcast,250,2012-12-10 00:53:00
4:53 PM,35.1,28.0,76,29.45,10.0,WSW,19.6,-,N/A,,Overcast,250,2012-12-10 01:53:00
5:53 PM,34.0,28.0,79,29.48,10.0,WSW,17.3,-,N/A,,Overcast,240,2012-12-10 02:53:00
6:53 PM,33.1,28.0,82,29.49,10.0,WSW,13.8,24.2,N/A,,Partly Cloudy,240,2012-12-10 03:53:00
7:53 PM,34.0,28.0,79,29.52,10.0,SW,17.3,-,N/A,,Partly Cloudy,220,2012-12-10 04:53:00
8:53 PM,34.0,28.0,79,29.54,10.0,SW,20.7,-,N/A,,Mostly Cloudy,230,2012-12-10 05:53:00
9:53 PM,34.0,28.0,79,29.55,10.0,WSW,17.3,-,N/A,,Overcast,240,2012-12-10 06:53:00
10:24 PM,33.8,28.4,81,29.55,4.0,WSW,20.7,31.1,0.00,Snow,Light Snow,250,2012-12-10 07:24:00
10:32 PM,33.8,28.4,81,29.55,9.0,WSW,20.7,31.1,0.00,,Overcast,240,2012-12-10 07:32:00
10:53 PM,33.1,28.9,85,29.56,7.0,WSW,21.9,31.1,0.00,Snow,Light Snow,240,2012-12-10 07:53:00
11:53 PM,33.1,28.9,85,29.58,5.0,WSW,18.4,26.5,0.00,Snow,Light Snow,240,2012-12-10 08:53:00